Location: Recife
(8.0585°S, 34.8848°W)
Time: 06:57:54
(UTC-03:00)

Courier 1B - Pass Details

Date: 18 April 2026
Orbit: 962 x 1209 km, 28.3° (Epoch: 13 May)

Event Time Altitude Azimuth Distance (km) Brightness Sun altitude
Rises 04:31:14 0° 292° (WNW) 3,902 - -13.1°
Reaches altitude 10° 04:33:56 10° 289° (WNW) 2,982 - -12.5°
Exits shadow 04:34:09 11° 289° (WNW) 2,914 9.5 -12.4°
Maximum altitude 04:41:18 67° 208° (SSW) 1,249 7.9 -10.7°
Drops below altitude 10° 04:49:04 10° 126° (SE) 3,131 10.8 -8.8°
Sets 04:52:00 0° 123° (ESE) 4,108 11.6 -8.1°
